1485151200.61,51582,9.38,73854.0,-7.33,-39.53,-39.71,0,*5C
1485151201.84,51583,9.38,73854.3,-7.33,-39.53,-39.85,0,*56
1485151203.14,51584,9.38,73854.8,-7.35,-39.79,-39.79,0,*5C
1485151204.43,51585,9.38,73854.0,-7.35,-39.71,-39.79,0,*55
1485151205.73,51586,9.38,73852.8,-7.35,-39.79,-40.09,0,*57
1485151207.03,51587,9.38,73850.8,-7.35,-39.59,-39.79,0,*5D
1485151208.3,51588,9.38,73850.8,-7.35,-39.71,-39.91,0,*5E
1485151209.51,51589,9.38,73852.0,-7.33,-39.65,-39.65,0,*57
1485151210.76,51590,9.38,73852.3,-7.33,-39.71,-39.91,0,*51
1485151212.02,51591,9.38,73852.5,-7.35,-39.91,-39.97,0,*5E
1485151213.26,51592,9.38,73854.8,-7.33,-39.71,-39.91,0,*53
1485151214.56,51593,9.38,73852.5,-7.35,-39.71,-39.79,0,*52
1485151215.85,51594,9.38,73852.8,-7.35,-39.71,-39.79,0,*55
1485151217.11,51595,9.38,73852.3,-7.33,-39.53,-39.71,0,*5A
1485151218.4,51596,9.38,73852.0,-7.35,-39.59,-39.71,0,*55
1485151219.7,51597,9.38,73852.3,-7.35,-39.71,-39.71,0,*5E
1485151220.91,51598,9.38,73852.3,-7.33,-39.47,-39.65,0,*57
1485151222.18,51599,9.38,73854.0,-7.35,-39.71,-39.85,0,*5B
1485151223.47,51600,9.38,73856.0,-7.35,-39.79,-39.97,0,*53
1485151224.74,51601,9.38,73854.5,-7.35,-39.91,-39.97,0,*54
1485151225.95,51602,9.38,73852.3,-7.33,-39.65,-39.85,0,*59
1485151227.16,51603,9.38,73854.8,-7.33,-39.85,-40.03,0,*56
1485151228.4,51604,9.38,73852.0,-7.33,-39.71,-39.91,0,*5F
1485151229.67,51605,9.38,73850.3,-7.35,-39.91,-39.97,0,*50
1485151230.96,51606,9.38,73854.3,-7.35,-39.79,-39.97,0,*55
1485151232.2,51607,9.38,73852.8,-7.33,-39.85,-40.09,0,*58
1485151233.47,51608,9.38,73848.0,-7.35,-39.79,-39.91,0,*5D
1485151234.77,51609,9.38,73852.3,-7.35,-39.71,-39.97,0,*52
1485151236.06,51610,9.38,73852.5,-7.35,-39.79,-40.09,0,*5B
1485151237.28,51611,9.38,73852.8,-7.33,-39.85,-39.91,0,*50
1485151238.57,51612,9.38,73852.3,-7.35,-39.79,-39.97,0,*50
1485151239.81,51613,9.38,73850.0,-7.37,-39.71,-39.91,0,*5D
1485151241.11,51614,9.38,73848.3,-7.39,-39.71,-39.79,0,*52
1485151242.35,51615,9.38,73850.5,-7.37,-39.91,-40.09,0,*5A
1485151243.58,51616,9.38,73850.8,-7.37,-39.97,-40.15,0,*52
1485151244.84,51617,9.38,73852.3,-7.37,-39.97,-40.09,0,*5E
1485151246.12,51618,9.38,73850.5,-7.39,-39.97,-40.29,0,*5D
1485151247.39,51619,9.38,73854.3,-7.37,-39.97,-40.09,0,*50
1485151248.63,51620,9.38,73856.3,-7.39,-39.91,-39.91,0,*5D
1485151249.9,51621,9.38,73854.5,-7.37,-39.79,-40.09,0,*5B
1485151251.11,51622,9.38,73854.8,-7.37,-39.91,-39.91,0,*51
1485151252.39,51623,9.38,73856.8,-7.39,-39.79,-39.91,0,*58
1485151253.68,51624,9.38,73852.3,-7.39,-39.71,-39.79,0,*51
1485151254.92,51625,9.38,73854.8,-7.37,-39.91,-40.09,0,*59
1485151256.14,51626,9.38,73858.0,-7.37,-39.91,-39.91,0,*55
1485151257.4,51627,9.38,73856.0,-7.39,-39.71,-39.91,0,*54
1485151258.65,51628,9.38,73852.8,-7.39,-39.91,-39.91,0,*55
1485151259.93,51629,9.38,73854.0,-7.39,-39.97,-40.09,0,*5D
1485151261.2,51630,9.38,73854.3,-7.39,-39.71,-39.91,0,*52
1485151262.44,51631,9.38,73854.8,-7.37,-39.79,-39.91,0,*55
1485151263.74,51632,9.38,73854.3,-7.39,-39.71,-39.97,0,*56
1485151265.02,51633,9.38,73856.0,-7.39,-39.41,-39.71,0,*5C
1485151266.29,51634,9.38,73852.3,-7.37,-39.71,-39.71,0,*56
1485151267.59,51635,9.38,73856.3,-7.39,-39.59,-39.71,0,*53
1485151268.86,51636,9.38,73856.8,-7.39,-39.59,-39.91,0,*5E
1485151270.13,51637,9.38,73858.3,-7.37,-39.79,-39.79,0,*55
1485151271.42,51638,9.38,73858.0,-7.39,-39.41,-39.59,0,*5D
1485151272.71,51639,9.38,73858.0,-7.39,-39.59,-39.71,0,*5F
1485151274.01,51640,9.38,73854.0,-7.39,-39.59,-39.71,0,*51
1485151275.27,51641,9.38,73856.5,-7.37,-39.71,-39.79,0,*5C
1485151276.54,51642,9.38,73854.0,-7.37,-39.59,-39.79,0,*55
1485151277.84,51643,9.38,73850.8,-7.39,-39.59,-39.71,0,*52
1485151279.11,51644,9.38,73852.0,-7.37,-39.59,-39.71,0,*5B
1485151280.4,51645,9.38,73854.5,-7.39,-39.71,-39.79,0,*56
1485151281.67,51646,9.38,73854.3,-7.37,-39.79,-39.97,0,*53
1485151282.97,51647,9.38,73856.8,-7.39,-39.79,-40.09,0,*55
1485151284.21,51648,9.38,73854.3,-7.37,-39.71,-39.91,0,*53
1485151285.48,51649,9.38,73854.0,-7.37,-39.59,-39.79,0,*5E
1485151286.75,51650,9.38,73852.5,-7.37,-39.59,-39.71,0,*5E
1485151288.02,51651,9.38,73854.0,-7.37,-39.59,-39.59,0,*55
1485151289.3,51652,9.38,73852.0,-7.39,-39.41,-39.53,0,*5B
1485151290.55,51653,9.38,73852.0,-7.39,-39.35,-39.41,0,*5A
1485151291.85,51654,9.38,73854.0,-7.39,-39.59,-39.79,0,*5C
1485151293.15,51655,9.38,73858.3,-7.39,-39.59,-39.71,0,*55
1485151294.43,51656,9.38,73854.0,-7.39,-39.41,-39.53,0,*5F
1485151295.68,51657,9.38,73854.8,-7.37,-39.41,-39.53,0,*50
1485151296.97,51658,9.38,73854.3,-7.39,-39.41,-39.41,0,*52
1485151298.24,51659,9.38,73856.0,-7.37,-39.59,-39.79,0,*5F
1485151299.53,51660,9.31,73852.5,-7.39,-39.59,-39.71,0,*53
1485151300.82,51661,9.38,73856.8,-7.39,-39.41,-39.71,0,*5B
1485151302.08,51662,9.38,73856.3,-7.37,-39.53,-39.59,0,*5F
1485151303.36,51663,9.38,73858.5,-7.39,-39.41,-39.53,0,*59
1485151304.59,51664,9.38,73852.0,-7.37,-39.23,-39.35,0,*54
1485151305.87,51665,9.38,73854.5,-7.39,-39.41,-39.53,0,*5F
1485151307.13,51666,9.38,73852.8,-7.37,-39.41,-39.53,0,*52
1485151308.35,51667,9.38,73852.5,-7.37,-39.35,-39.41,0,*53
1485151309.61,51668,9.38,73852.3,-7.39,-39.35,-39.41,0,*52
1485151310.84,51669,9.38,73850.3,-7.37,-39.15,-39.35,0,*5C
1485151312.1,51670,9.38,73852.8,-7.37,-39.41,-39.41,0,*56
1485151313.35,51671,9.38,73848.8,-7.37,-39.23,-39.41,0,*53
1485151314.64,51672,9.38,73854.5,-7.35,-39.23,-39.41,0,*52
1485151315.92,51673,9.38,73852.0,-7.35,-39.23,-39.41,0,*53
1485151317.2,51674,9.38,73856.5,-7.35,-39.23,-39.53,0,*57
1485151318.45,51675,9.38,73852.8,-7.35,-39.35,-39.53,0,*51
1485151319.68,51676,9.38,73854.5,-7.35,-39.35,-39.35,0,*52
1485151320.94,51677,9.38,73854.0,-7.35,-39.35,-39.41,0,*50
1485151322.22,51678,9.38,73852.5,-7.35,-39.41,-39.53,0,*5F
1485151323.43,51679,9.38,73850.0,-7.33,-39.09,-39.35,0,*54
1485151324.72,51680,9.38,73854.3,-7.35,-39.15,-39.41,0,*5A
1485151326.0,51681,9.38,73856.3,-7.35,-39.23,-39.41,0,*5E
1485151327.25,51682,9.38,73858.5,-7.35,-39.35,-39.41,0,*5A
1485151328.52,51683,9.38,73858.3,-7.33,-39.41,-39.59,0,*57
1485151329.72,51684,9.31,73850.8,-7.33,-39.35,-39.47,0,*5C
1485151330.92,51685,9.38,73854.5,-7.33,-39.35,-39.47,0,*5D
1485151332.22,51686,9.38,73852.0,-7.35,-39.59,-39.59,0,*5D
1485151333.52,51687,9.38,73858.8,-7.35,-39.59,-39.79,0,*5E
1485151334.72,51688,9.38,73854.8,-7.33,-39.35,-39.47,0,*50
1485151335.92,51689,9.38,73856.0,-7.33,-39.35,-39.47,0,*51
1485151337.21,51690,9.38,73854.8,-7.35,-39.71,-39.71,0,*5A
1485151338.48,51691,9.38,73856.0,-7.35,-39.59,-39.91,0,*5F
1485151339.7,51692,9.38,73858.8,-7.33,-39.65,-39.65,0,*5E
1485151340.92,51693,9.38,73858.8,-7.33,-39.47,-39.65,0,*5F
1485151342.12,51694,9.38,73854.8,-7.33,-39.47,-39.47,0,*58
1485151343.41,51695,9.38,73854.8,-7.35,-39.41,-39.59,0,*56
1485151344.64,51696,9.38,73856.8,-7.33,-39.47,-39.53,0,*5F
1485151345.87,51697,9.38,73854.3,-7.33,-39.35,-39.53,0,*5B
1485151347.16,51698,9.38,73858.3,-7.35,-39.53,-39.71,0,*52
1485151348.44,51699,9.38,73856.0,-7.35,-39.53,-39.71,0,*53
1485151349.69,51700,9.38,73852.8,-7.33,-39.53,-39.53,0,*54
1485151350.98,51701,9.38,73856.3,-7.35,-39.53,-39.59,0,*59
1485151352.27,51702,9.38,73858.0,-7.35,-39.53,-39.59,0,*5A
1485151353.56,51703,9.38,73854.0,-7.35,-39.71,-39.71,0,*51
1485151354.82,51704,9.38,73856.3,-7.35,-39.91,-39.97,0,*50
1485151356.03,51705,9.38,73858.3,-7.33,-39.65,-39.85,0,*5F
1485151357.3,51706,9.38,73856.5,-7.35,-39.71,-39.85,0,*5F
1485151358.57,51707,9.38,73852.8,-7.35,-39.71,-39.91,0,*5B
1485151359.86,51708,9.38,73856.0,-7.35,-39.59,-39.79,0,*58
1485151361.15,51709,9.38,73852.8,-7.35,-39.53,-39.79,0,*53
1485151362.42,51710,9.38,73854.3,-7.35,-39.71,-39.91,0,*5D
1485151363.71,51711,9.38,73852.3,-7.35,-39.59,-39.79,0,*50
1485151364.93,51712,9.38,73852.3,-7.33,-39.65,-39.65,0,*57
1485151366.22,51713,9.31,73848.0,-7.35,-39.71,-39.71,0,*50
1485151367.52,51714,9.38,73854.3,-7.35,-39.71,-39.71,0,*57
1485151368.81,51715,9.38,73852.3,-7.35,-39.71,-39.79,0,*5E
1485151370.1,51716,9.38,73858.3,-7.35,-39.71,-39.79,0,*5D
1485151371.4,51717,9.38,73852.5,-7.35,-39.71,-39.79,0,*5C
1485151372.64,51718,9.38,73850.8,-7.37,-39.79,-39.91,0,*5F
1485151373.88,51719,9.38,73856.0,-7.35,-39.91,-39.91,0,*5A
1485151375.13,51720,9.38,73856.0,-7.35,-39.91,-40.15,0,*52
1485151376.4,51721,9.38,73854.5,-7.35,-39.79,-39.91,0,*57
1485151377.66,51722,9.38,73852.8,-7.35,-39.71,-39.85,0,*59
1485151378.96,51723,9.31,73850.8,-7.35,-39.79,-39.97,0,*53
1485151380.23,51724,9.38,73854.3,-7.35,-39.91,-40.09,0,*5B
1485151381.52,51725,9.38,73858.5,-7.35,-39.71,-39.79,0,*5D
1485151382.76,51726,9.31,73852.3,-7.33,-39.65,-39.71,0,*55
1485151384.05,51727,9.38,73850.5,-7.35,-39.53,-39.59,0,*5D
1485151385.34,51728,9.38,73852.5,-7.35,-39.59,-39.79,0,*5A
1485151386.61,51729,9.38,73852.3,-7.35,-39.91,-40.09,0,*56
1485151387.88,51730,9.38,73852.3,-7.35,-39.91,-40.09,0,*5E
1485151389.15,51731,9.38,73854.3,-7.35,-39.91,-40.09,0,*5F
1485151390.43,51732,9.38,73852.8,-7.35,-39.79,-40.15,0,*57
1485151391.64,51733,9.38,73854.8,-7.37,-39.91,-40.15,0,*52
1485151392.89,51734,9.38,73858.0,-7.37,-39.79,-39.91,0,*51
1485151394.1,51735,9.38,73854.5,-7.37,-39.91,-39.91,0,*56
1485151395.34,51736,9.38,73856.5,-7.37,-39.91,-40.09,0,*5A
1485151396.61,51737,9.38,73852.3,-7.39,-39.91,-40.09,0,*55
1485151397.88,51738,9.38,73854.0,-7.37,-39.79,-40.09,0,*52
1485151399.15,51739,9.38,73854.3,-7.37,-39.79,-39.97,0,*5A
1485151400.44,51740,9.38,73854.3,-7.39,-39.71,-39.79,0,*52
1485151401.71,51741,9.38,73856.0,-7.39,-39.71,-39.91,0,*55
1485151402.93,51742,9.38,73848.5,-7.37,-39.91,-40.15,0,*54
1485151404.17,51743,9.38,73854.5,-7.37,-39.71,-39.91,0,*59
1485151405.46,51744,9.38,73854.8,-7.39,-39.59,-39.71,0,*54
1485151406.73,51745,9.38,73852.8,-7.37,-39.59,-39.79,0,*53
1485151408.0,51746,9.38,73854.8,-7.39,-39.71,-39.91,0,*52
1485151409.26,51747,9.38,73854.0,-7.37,-39.53,-39.71,0,*53
1485151410.52,51748,9.38,73854.0,-7.37,-39.53,-39.59,0,*56
1485151411.8,51749,9.38,73852.3,-7.39,-39.53,-39.71,0,*53
1485151413.06,51750,9.38,73854.8,-7.37,-39.41,-39.53,0,*56
1485151414.33,51751,9.38,73852.5,-7.37,-39.79,-39.79,0,*54
1485151415.57,51752,9.38,73856.5,-7.37,-39.79,-39.91,0,*51
1485151416.87,51753,9.38,73850.5,-7.39,-39.59,-39.79,0,*5A
1485151418.14,51754,9.38,73852.0,-7.37,-39.59,-39.79,0,*53
1485151419.41,51755,9.38,73850.8,-7.37,-39.59,-39.79,0,*52
1485151420.68,51756,9.38,73852.8,-7.39,-39.71,-39.91,0,*53
1485151421.94,51757,9.38,73852.3,-7.39,-39.71,-39.91,0,*52
1485151423.21,51758,9.38,73852.3,-7.37,-39.71,-39.97,0,*55
1485151424.5,51759,9.38,73856.5,-7.39,-39.59,-39.79,0,*50
1485151425.8,51760,9.31,73850.5,-7.39,-39.71,-39.97,0,*50
1485151427.06,51761,9.38,73854.8,-7.39,-39.91,-40.09,0,*56
1485151428.36,51762,9.38,73858.3,-7.39,-39.79,-39.97,0,*5A
1485151429.63,51763,9.38,73850.5,-7.39,-39.79,-39.91,0,*5D
1485151430.9,51764,9.38,73854.0,-7.39,-39.71,-39.91,0,*52
1485151432.16,51765,9.38,73852.5,-7.39,-39.71,-39.91,0,*53
1485151433.41,51766,9.38,73854.3,-7.37,-39.79,-39.91,0,*56
1485151434.71,51767,9.38,73856.3,-7.39,-39.59,-39.79,0,*5D
1485151435.97,51768,9.38,73852.3,-7.39,-39.71,-39.91,0,*5E
1485151437.24,51769,9.38,73854.0,-7.39,-39.91,-40.09,0,*5E
1485151438.54,51770,9.38,73852.0,-7.39,-39.59,-39.71,0,*53
1485151439.83,51771,9.38,73852.8,-7.39,-39.71,-39.79,0,*50
1485151441.13,51772,9.38,73854.0,-7.39,-39.59,-39.79,0,*59
1485151442.4,51773,9.38,73852.0,-7.39,-39.71,-39.91,0,*54
1485151443.66,51774,9.38,73854.0,-7.43,-39.65,-39.97,0,*5D
1485151444.93,51775,9.38,73854.3,-7.43,-39.65,-39.79,0,*5C
1485151446.22,51776,9.38,73852.8,-7.43,-39.79,-39.97,0,*52
1485151447.46,51777,9.38,73854.3,-7.43,-39.65,-39.85,0,*5D
1485151448.73,51778,9.38,73854.3,-7.43,-39.79,-39.85,0,*5F
1485151450.01,51779,9.38,73850.0,-7.39,-39.41,-39.53,0,*53
1485151451.3,51780,9.38,73854.5,-7.39,-39.71,-39.79,0,*5E
1485151452.6,51781,9.38,73852.0,-7.43,-39.79,-39.97,0,*5A
1485151453.81,51782,9.38,73856.5,-7.45,-39.65,-39.85,0,*51
1485151455.07,51783,9.38,73852.3,-7.43,-39.65,-39.97,0,*55
1485151456.31,51784,9.31,73848.0,-7.43,-39.65,-39.85,0,*51
1485151457.61,51785,9.38,73848.3,-7.43,-39.79,-39.97,0,*5E
1485151458.88,51786,9.38,73852.0,-7.43,-39.59,-39.85,0,*5C
1485151460.17,51787,9.38,73852.3,-7.43,-39.79,-39.79,0,*5C
1485151461.44,51788,9.38,73848.5,-7.43,-39.65,-39.97,0,*5E
1485151462.71,51789,9.38,73852.5,-7.43,-39.47,-39.59,0,*5D
1485151463.97,51790,9.38,73850.3,-7.43,-39.79,-39.85,0,*59
1485151465.22,51791,9.38,73848.3,-7.43,-39.47,-39.65,0,*5B
1485151466.51,51792,9.38,73852.5,-7.43,-39.41,-39.59,0,*51
1485151467.76,51793,9.38,73852.8,-7.43,-39.29,-39.47,0,*51
1485151469.05,51794,9.38,73850.3,-7.43,-39.41,-39.59,0,*57
1485151470.3,51795,9.38,73848.5,-7.43,-39.29,-39.47,0,*57
1485151471.57,51796,9.38,73850.8,-7.43,-39.47,-39.59,0,*53
1485151472.86,51797,9.31,73850.5,-7.43,-39.23,-39.59,0,*50
1485151474.09,51798,9.38,73854.0,-7.37,-39.35,-39.59,0,*5B
1485151475.35,51799,9.38,73852.3,-7.37,-39.23,-39.41,0,*54
1485151476.63,51800,9.38,73852.8,-7.39,-39.23,-39.41,0,*55
1485151477.91,51801,9.38,73850.5,-7.39,-39.23,-39.41,0,*54
1485151479.14,51802,9.38,73850.0,-7.37,-39.23,-39.35,0,*5A
1485151480.42,51803,9.38,73850.8,-7.39,-39.15,-39.41,0,*53
1485151481.68,51804,9.38,73852.3,-7.37,-39.23,-39.41,0,*5F
1485151482.91,51805,9.38,73854.5,-7.37,-39.35,-39.53,0,*5A
1485151484.19,51806,9.38,73854.0,-7.39,-39.23,-39.41,0,*53
1485151485.44,51807,9.38,73854.3,-7.37,-39.23,-39.41,0,*5C
1485151486.7,51808,9.38,73856.0,-7.39,-39.35,-39.53,0,*59
1485151487.96,51809,9.38,73852.5,-7.37,-39.53,-39.71,0,*56
1485151489.22,51810,9.38,73852.8,-7.37,-39.53,-39.59,0,*54
1485151490.48,51811,9.38,73854.5,-7.39,-39.35,-39.59,0,*5B
1485151491.73,51812,9.38,73852.3,-7.37,-39.23,-39.53,0,*5B
1485151492.99,51813,9.38,73852.5,-7.37,-39.23,-39.41,0,*59
1485151494.22,51814,9.38,73854.8,-7.37,-39.35,-39.41,0,*59
1485151495.5,51815,9.38,73856.5,-7.39,-39.03,-39.41,0,*53
1485151496.78,51816,9.38,73852.0,-7.35,-39.15,-39.41,0,*5B
1485151498.04,51817,9.38,73852.0,-7.39,-39.35,-39.53,0,*57
1485151499.28,51818,9.38,73856.5,-7.37,-39.35,-39.59,0,*5C
1485151500.54,51819,9.38,73856.5,-7.37,-39.41,-39.59,0,*5E
1485151501.79,51820,9.38,73856.5,-7.39,-39.35,-39.53,0,*53
1485151503.05,51821,9.38,73856.0,-7.37,-39.15,-39.41,0,*5D
1485151504.28,51822,9.38,73852.5,-7.37,-39.03,-39.35,0,*5A
1485151505.51,51823,9.38,73852.8,-7.37,-39.03,-39.35,0,*5B
1485151506.77,51824,9.38,73860.0,-7.37,-39.15,-39.41,0,*58
1485151508.02,51825,9.31,73854.3,-7.35,-39.23,-39.35,0,*5D
1485151509.3,51826,9.38,73856.5,-7.35,-39.23,-39.41,0,*5D
1485151510.56,51827,9.38,73858.0,-7.35,-39.23,-39.35,0,*5F
1485151511.84,51828,9.38,73854.5,-7.35,-39.23,-39.41,0,*53
1485151513.1,51829,9.38,73856.3,-7.35,-39.09,-39.41,0,*5A
1485151514.36,51830,9.38,73852.8,-7.35,-39.35,-39.41,0,*5D
1485151515.64,51831,9.38,73854.8,-7.35,-39.41,-39.53,0,*5C
1485151516.84,51832,9.38,73854.3,-7.33,-38.97,-39.35,0,*53
1485151518.09,51833,9.38,73852.3,-7.33,-39.29,-39.29,0,*5B
1485151519.37,51834,9.38,73852.5,-7.35,-39.23,-39.41,0,*5E
1485151520.61,51835,9.38,73858.3,-7.33,-39.09,-39.29,0,*5F
1485151521.87,51836,9.38,73856.3,-7.35,-39.15,-39.35,0,*5A
1485151523.08,51837,9.38,73852.8,-7.33,-39.09,-39.35,0,*50
1485151524.31,51838,9.38,73852.5,-7.33,-39.15,-39.35,0,*52
1485151525.54,51839,9.38,73852.0,-7.33,-38.97,-39.29,0,*55
1485151526.78,51840,9.38,73852.5,-7.33,-39.09,-39.15,0,*52
1485151528.04,51841,9.38,73852.5,-7.35,-39.15,-39.35,0,*5A
1485151529.24,51842,9.38,73850.8,-7.33,-39.09,-39.35,0,*52
1485151530.47,51843,9.38,73850.0,-7.33,-39.29,-39.35,0,*51
1485151531.7,51844,9.38,73852.8,-7.33,-39.15,-39.35,0,*59
1485151532.91,51845,9.38,73854.3,-7.33,-39.09,-39.35,0,*55
1485151534.16,51846,9.38,73854.0,-7.29,-38.91,-39.23,0,*5A
1485151535.41,51847,9.38,73856.0,-7.31,-38.97,-39.29,0,*5E
1485151536.66,51848,9.38,73854.8,-7.31,-38.97,-39.29,0,*51
1485151537.91,51849,9.38,73858.0,-7.31,-39.29,-39.47,0,*5C
1485151539.15,51850,9.38,73856.5,-7.29,-38.91,-39.23,0,*5D
1485151540.41,51851,9.38,73854.3,-7.31,-39.15,-39.35,0,*5F
1485151541.67,51852,9.38,73858.0,-7.31,-39.15,-39.35,0,*5C
1485151542.9,51853,9.38,73854.3,-7.29,-39.09,-39.29,0,*54
1485151544.15,51854,9.38,73854.0,-7.29,-39.23,-39.41,0,*55
1485151545.37,51855,9.38,73852.8,-7.29,-39.41,-39.47,0,*56
1485151546.6,51856,9.38,73856.8,-7.29,-39.47,-39.79,0,*5E
1485151547.86,51857,9.38,73852.8,-7.31,-39.53,-39.65,0,*5E
1485151549.12,51858,9.38,73850.8,-7.29,-39.59,-39.79,0,*5F
1485151550.35,51859,9.38,73858.3,-7.29,-39.47,-39.41,0,*5A
1485151551.6,51860,9.38,73856.3,-7.29,-39.41,-39.59,0,*5F
1485151552.85,51861,9.38,73852.0,-7.29,-39.29,-39.41,0,*59
1485151554.11,51862,9.38,73852.3,-7.29,-39.41,-39.59,0,*5D
1485151555.33,51863,9.38,73852.5,-7.29,-39.41,-39.47,0,*53
1485151556.55,51864,9.38,73856.8,-7.29,-39.29,-39.47,0,*5A
1485151557.81,51865,9.38,73852.8,-7.31,-39.53,-39.65,0,*5F
1485151559.05,51866,9.38,73854.3,-7.29,-39.59,-39.65,0,*5F
1485151560.25,51867,9.38,73854.0,-7.29,-39.65,-39.85,0,*5F
1485151561.51,51868,9.38,73856.3,-7.31,-39.53,-39.65,0,*52
1485151562.75,51869,9.38,73854.3,-7.29,-39.59,-39.65,0,*50
1485151564.01,51870,9.38,73856.8,-7.31,-39.53,-39.65,0,*5B
1485151565.29,51871,9.38,73856.8,-7.31,-39.53,-39.59,0,*55
1485151566.55,51872,9.38,73858.3,-7.31,-39.65,-39.71,0,*59
1485151567.81,51873,9.38,73856.0,-7.31,-39.65,-39.71,0,*58
1485151569.07,51874,9.38,73854.3,-7.29,-39.71,-39.79,0,*5B
1485151570.34,51875,9.38,73854.5,-7.31,-39.65,-39.71,0,*5E
1485151571.58,51876,9.38,73852.5,-7.29,-39.59,-39.65,0,*5E
1485151572.84,51877,9.38,73854.3,-7.31,-39.65,-39.71,0,*5C
1485151574.12,51878,9.38,73854.3,-7.31,-39.53,-39.71,0,*56
1485151575.36,51879,9.38,73852.8,-7.31,-39.65,-39.65,0,*57
1485151576.62,51880,9.38,73852.5,-7.31,-39.65,-39.71,0,*54
1485151577.86,51881,9.38,73850.0,-7.31,-39.85,-39.91,0,*55
1485151579.09,51882,9.38,73852.8,-7.31,-39.85,-40.03,0,*53
1485151580.36,51883,9.38,73854.0,-7.31,-39.85,-40.09,0,*58
1485151581.59,51884,9.38,73854.3,-7.29,-39.85,-39.97,0,*5F
1485151582.83,51885,9.38,73854.5,-7.33,-39.91,-40.21,0,*53
1485151584.09,51886,9.38,73850.0,-7.31,-39.91,-40.21,0,*52
1485151585.36,51887,9.38,73854.3,-7.31,-39.91,-40.09,0,*59
1485151586.59,51888,9.38,73854.5,-7.31,-39.85,-39.91,0,*5C
1485151587.83,51889,9.38,73852.5,-7.31,-39.85,-40.03,0,*58
1485151589.09,51890,9.38,73854.3,-7.31,-39.71,-39.91,0,*5E
1485151590.32,51891,9.38,73848.8,-7.31,-39.85,-39.85,0,*51
1485151591.59,51892,9.38,73848.8,-7.31,-39.71,-39.91,0,*5C
1485151592.85,51893,9.38,73850.8,-7.31,-39.65,-39.71,0,*56
1485151594.11,51894,9.38,73852.0,-7.33,-39.53,-39.71,0,*56
1485151595.33,51895,9.38,73852.5,-7.31,-39.35,-39.47,0,*50
1485151596.61,51896,9.31,73850.8,-7.31,-39.29,-39.29,0,*56
1485151597.89,51897,9.38,73850.8,-7.31,-39.53,-39.53,0,*57
1485151599.11,51898,9.38,73852.3,-7.29,-39.09,-39.41,0,*5D
1485151600.34,51899,9.38,73854.0,-7.31,-39.35,-39.47,0,*5C
1485151601.59,51900,9.38,73856.3,-7.31,-39.29,-39.47,0,*50
1485151602.81,51901,9.38,73852.0,-7.29,-39.53,-39.47,0,*55
1485151604.06,51902,9.38,73852.5,-7.31,-39.47,-39.53,0,*5F
1485151605.35,51903,9.38,73854.0,-7.31,-39.71,-39.71,0,*5B
1485151606.61,51904,9.38,73852.0,-7.31,-39.71,-39.85,0,*57
1485151607.89,51905,9.38,73858.3,-7.31,-39.53,-39.71,0,*5D
1485151609.15,51906,9.38,73856.0,-7.31,-39.47,-39.71,0,*5B
1485151610.44,51907,9.38,73854.8,-7.31,-39.71,-39.71,0,*5F
1485151611.7,51908,9.38,73852.3,-7.31,-39.53,-39.65,0,*55
1485151612.93,51909,9.38,73852.8,-7.29,-39.41,-39.65,0,*5E
1485151614.16,51910,9.38,73852.5,-7.29,-39.47,-39.59,0,*5F
1485151615.4,51911,9.38,73854.3,-7.31,-39.65,-39.65,0,*58
1485151616.65,51912,9.38,73854.0,-7.29,-39.23,-39.41,0,*56
1485151617.85,51913,9.38,73854.0,-7.29,-39.35,-39.47,0,*56
1485151619.07,51914,9.38,73852.8,-7.29,-39.41,-39.47,0,*52
1485151620.32,51915,9.38,73854.0,-7.29,-39.41,-39.41,0,*55
1485151621.53,51916,9.38,73854.0,-7.29,-39.47,-39.65,0,*56
1485151622.76,51917,9.38,73854.0,-7.29,-39.47,-39.59,0,*58
1485151623.98,51918,9.38,73852.8,-7.29,-39.29,-39.47,0,*50
1485151625.2,51919,9.38,73852.3,-7.29,-39.41,-39.47,0,*5F
1485151626.44,51920,9.38,73854.3,-7.29,-39.41,-39.65,0,*55
1485151627.66,51921,9.38,73852.5,-7.29,-39.41,-39.47,0,*54
1485151628.91,51922,9.38,73852.0,-7.29,-39.41,-39.59,0,*58
1485151630.15,51923,9.38,73852.0,-7.29,-39.47,-39.59,0,*5F
1485151631.36,51924,9.38,73852.0,-7.29,-39.47,-39.65,0,*57
1485151632.61,51925,9.38,73850.8,-7.31,-39.53,-39.65,0,*5A
1485151633.85,51926,9.38,73852.5,-7.29,-39.79,-39.85,0,*56
1485151635.11,51927,9.38,73854.5,-7.29,-39.59,-39.59,0,*54
1485151636.37,51928,9.38,73852.5,-7.29,-39.41,-39.59,0,*52
1485151637.63,51929,9.38,73848.8,-7.29,-39.59,-39.59,0,*5A
1485151638.84,51930,9.38,73856.3,-7.29,-39.65,-39.85,0,*5C
1485151640.07,51931,9.38,73852.3,-7.31,-39.65,-39.85,0,*54
1485151641.33,51932,9.38,73852.3,-7.31,-39.65,-39.71,0,*5C
1485151642.59,51933,9.38,73854.8,-7.31,-39.71,-39.85,0,*53
1485151643.8,51934,9.38,73852.5,-7.29,-39.65,-39.65,0,*56
1485151645.07,51935,9.38,73854.5,-7.29,-39.59,-39.79,0,*55
1485151646.3,51936,9.38,73852.5,-7.29,-39.79,-39.85,0,*57
1485151647.53,51937,9.38,73854.3,-7.29,-39.65,-39.79,0,*58
1485151648.79,51938,9.38,73852.5,-7.31,-39.71,-39.85,0,*58
1485151650.06,51939,9.38,73852.3,-7.29,-39.79,-39.79,0,*5B
1485151651.29,51940,9.38,73854.5,-7.29,-39.41,-39.65,0,*53
1485151652.52,51941,9.38,73854.8,-7.29,-39.47,-39.59,0,*5B
1485151653.76,51942,9.38,73852.5,-7.31,-39.85,-40.03,0,*5E
1485151654.99,51943,9.38,73856.5,-7.29,-39.79,-39.85,0,*55
1485151656.27,51944,9.38,73852.8,-7.31,-39.53,-39.71,0,*58
1485151657.53,51945,9.38,73848.5,-7.29,-39.41,-39.59,0,*59
1485151658.77,51946,9.38,73852.0,-7.29,-39.59,-39.65,0,*5C
1485151660.03,51947,9.38,73852.0,-7.31,-39.65,-39.71,0,*5E
1485151661.31,51948,9.38,73852.5,-7.31,-39.53,-39.71,0,*54
1485151662.57,51949,9.38,73850.8,-7.31,-39.71,-39.85,0,*5E
1485151663.83,51950,9.38,73848.8,-7.29,-39.59,-39.79,0,*56
1485151665.1,51951,9.38,73850.3,-7.31,-39.71,-39.85,0,*57
1485151666.3,51952,9.38,73852.8,-7.29,-39.65,-39.85,0,*58
1485151667.54,51953,9.38,73854.3,-7.31,-39.85,-39.91,0,*5B
1485151668.8,51954,9.38,73854.5,-7.31,-39.71,-39.85,0,*52
1485151670.06,51955,9.38,73854.5,-7.31,-39.71,-39.91,0,*56
1485151671.32,51956,9.38,73850.5,-7.31,-39.65,-39.71,0,*5E
1485151672.56,51957,9.38,73852.5,-7.29,-39.59,-39.85,0,*52
1485151673.79,51958,9.31,73850.0,-7.31,-39.85,-39.91,0,*50
1485151675.03,51959,9.38,73848.3,-7.31,-39.85,-39.91,0,*51
1485151676.24,51960,9.31,73848.3,-7.29,-39.85,-39.91,0,*52
1485151677.5,51961,9.38,73850.0,-7.31,-39.71,-39.91,0,*51
1485151678.76,51962,9.38,73852.3,-7.31,-39.71,-39.85,0,*57
1485151680.03,51963,9.38,73850.0,-7.31,-39.71,-39.91,0,*53
1485151681.29,51964,9.38,73850.5,-7.31,-39.71,-39.91,0,*54
1485151682.53,51965,9.38,73852.3,-7.31,-39.65,-39.91,0,*50
1485151683.76,51966,9.38,73854.8,-7.29,-39.47,-39.59,0,*5E
1485151685.02,51967,9.38,73850.3,-7.31,-39.71,-39.85,0,*52
1485151686.26,51968,9.38,73850.5,-7.31,-39.65,-39.85,0,*58
1485151687.54,51969,9.38,73854.3,-7.31,-39.53,-39.71,0,*57
1485151688.79,51970,9.38,73850.3,-7.31,-39.53,-39.65,0,*5A
1485151690.02,51971,9.38,73854.5,-7.31,-39.35,-39.47,0,*5B
1485151691.28,51972,9.38,73856.0,-7.31,-39.47,-39.53,0,*58
1485151692.53,51973,9.38,73854.0,-7.31,-39.53,-39.65,0,*59
1485151693.8,51974,9.38,73854.5,-7.31,-39.65,-39.71,0,*5E
1485151695.08,51975,9.38,73854.0,-7.31,-39.71,-39.71,0,*5A
1485151696.35,51976,9.38,73854.8,-7.31,-39.47,-39.71,0,*5C
1485151697.61,51977,9.38,73856.3,-7.31,-39.47,-39.71,0,*5D
1485151698.85,51978,9.38,73854.0,-7.31,-39.47,-39.65,0,*57
1485151700.08,51979,9.38,73858.3,-7.31,-39.65,-39.65,0,*56
1485151701.32,51980,9.38,73856.3,-7.31,-39.65,-39.65,0,*50
1485151702.58,51981,9.38,73854.0,-7.29,-39.41,-39.59,0,*51
1485151703.85,51982,9.38,73854.3,-7.31,-39.85,-40.09,0,*58
1485151705.1,51983,9.38,73856.8,-7.31,-39.71,-39.85,0,*58
1485151706.34,51984,9.38,73856.5,-7.31,-39.65,-39.65,0,*54
1485151707.55,51985,9.38,73856.8,-7.29,-39.47,-39.65,0,*5C
1485151708.81,51986,9.38,73858.0,-7.31,-39.53,-39.65,0,*53
1485151710.05,51987,9.31,73850.3,-7.31,-39.47,-39.65,0,*57
1485151711.27,51988,9.38,73852.5,-7.31,-39.35,-39.47,0,*5D